sat.trackr.live / text

‹ back to catalog

STARLINK-34556

NORAD 64733 · 2025-144K

PAYLOAD ACTIVE UNKNOWN

§ Identity

Operator
Country
US
Launch date
2025-07-02
Launch site
AFETR
Launch vehicle
Mass (kg)
RCS (m²)

Purposes: comms

External: N2YO · Heavens-Above · Gunter

§ Orbital elements

Epoch: 2026-09-20T13:33:25.231104Z

Period
93.85 min
Inclination
53.1612°
Eccentricity
0.0001150
Mean motion
15.34414537 rev/d
Perigee alt
461.9 km
Apogee alt
463.4 km
Semi-major
6,840.8 km
B*
7.2926e-4
RAAN
349.0929°
Arg perigee
50.4366°
Mean anomaly
309.6738°
Rev number
6,964

§ Raw data

STARLINK-345561 64733U 25144K   26263.56487536  .00024354  00000+0  72926-3 0  99982 64733  53.1612 349.0929 0001150  50.4366 309.6738 15.34414537 69648

JSON: /api/v1/satellites/64733 · /tle

For live sub-satellite position, see the globe view (requires WebGL).

§ Visibility from observer

Set your observer location to see the next 7 days of passes ≥ 10°. The values pass through the URL so the page stays shareable.

No JS? Fill the form by hand. The geolocation button needs JavaScript.